EN

Hourly Weather Paicandu

Today, 7 March, Sunday

Time Temperature Precipitation Wind Pressure Humidity
00:00 +20°C° 0.1 mm 0 mps 717 mmHg 91%
01:00 +19°C° 0 mm 0 mps 716 mmHg 92%
02:00 +19°C° 0 mm 0 mps 716 mmHg 92%
03:00 +19°C° 0 mm 0 mps 716 mmHg 93%
04:00 +19°C° 0 mm 0 mps 716 mmHg 93%
05:00 +18°C° 0 mm 0 mps 716 mmHg 93%
06:00 +18°C° 0 mm 0 mps 716 mmHg 94%
07:00 +20°C° 0 mm 0 mps 717 mmHg 91%
08:00 +21°C° 0 mm 0 mps 718 mmHg 88%
09:00 +24°C° 0 mm 1 mps 719 mmHg 85%
10:00 +26°C° 0.2 mm 1 mps 718 mmHg 80%
11:00 +27°C° 0.2 mm 1 mps 718 mmHg 75%
12:00 +29°C° 0.2 mm 1 mps 718 mmHg 71%
13:00 +28°C° 1 mm 1 mps 718 mmHg 72%
14:00 +28°C° 1 mm 1 mps 717 mmHg 73%
15:00 +28°C° 1 mm 2 mps 716 mmHg 75%
16:00 +28°C° 1 mm 1 mps 716 mmHg 78%
17:00 +27°C° 1 mm 1 mps 716 mmHg 82%
18:00 +25°C° 1 mm 0 mps 715 mmHg 85%
19:00 +23°C° 0.4 mm 0 mps 716 mmHg 86%
20:00 +22°C° 0.4 mm 0 mps 716 mmHg 86%
21:00 +21°C° 0.4 mm 0 mps 717 mmHg 87%
22:00 +21°C° 0 mm 0 mps 717 mmHg 88%
23:00 +20°C° 0 mm 0 mps 717 mmHg 89%

Tomorrow, 8 March, Monday

Time Temperature Precipitation Wind Pressure Humidity
00:00 +20°C° 0 mm 0 mps 717 mmHg 90%
01:00 +22°C° 0 mm 1 mps 717 mmHg 91%
02:00 +21°C° 0 mm 1 mps 716 mmHg 91%
03:00 +21°C° 0 mm 1 mps 716 mmHg 92%
04:00 +21°C° 0 mm 1 mps 716 mmHg 93%
05:00 +21°C° 0 mm 1 mps 717 mmHg 94%
06:00 +20°C° 0 mm 1 mps 717 mmHg 94%
07:00 +22°C° 0 mm 1 mps 717 mmHg 92%
08:00 +23°C° 0 mm 1 mps 718 mmHg 89%
09:00 +25°C° 0 mm 1 mps 719 mmHg 87%
10:00 +26°C° 0.4 mm 1 mps 719 mmHg 83%
11:00 +27°C° 0.4 mm 1 mps 719 mmHg 79%
12:00 +27°C° 0.4 mm 0 mps 719 mmHg 75%
13:00 +27°C° 0.5 mm 0 mps 718 mmHg 73%
14:00 +27°C° 0.5 mm 0 mps 717 mmHg 72%
15:00 +27°C° 0.5 mm 0 mps 717 mmHg 70%
16:00 +29°C° 0.6 mm 1 mps 717 mmHg 75%
17:00 +28°C° 0.6 mm 1 mps 716 mmHg 79%
18:00 +27°C° 0.6 mm 1 mps 716 mmHg 84%
19:00 +26°C° 0.3 mm 1 mps 716 mmHg 86%
20:00 +23°C° 0.3 mm 0 mps 716 mmHg 87%
21:00 +21°C° 0.3 mm 0 mps 717 mmHg 89%
22:00 +21°C° 0 mm 0 mps 717 mmHg 90%
23:00 +21°C° 0 mm 0 mps 717 mmHg 90%

Day after tomorrow, 9 March, Tuesday

Time Temperature Precipitation Wind Pressure Humidity
00:00 +20°C° 0 mm 0 mps 717 mmHg 91%
01:00 +22°C° 0 mm 1 mps 716 mmHg 91%
02:00 +22°C° 0 mm 1 mps 716 mmHg 92%
03:00 +22°C° 0 mm 1 mps 716 mmHg 93%
04:00 +21°C° 0 mm 1 mps 716 mmHg 93%
05:00 +21°C° 0 mm 1 mps 716 mmHg 94%
06:00 +21°C° 0 mm 1 mps 716 mmHg 94%
07:00 +22°C° 0 mm 1 mps 717 mmHg 92%
08:00 +24°C° 0 mm 1 mps 717 mmHg 89%
09:00 +25°C° 0 mm 1 mps 718 mmHg 86%
10:00 +26°C° 0.2 mm 1 mps 718 mmHg 81%
11:00 +28°C° 0.2 mm 1 mps 718 mmHg 76%
12:00 +27°C° 0.2 mm 0 mps 718 mmHg 71%
13:00 +29°C° 0.4 mm 1 mps 717 mmHg 71%
14:00 +29°C° 0.4 mm 1 mps 716 mmHg 71%
15:00 +29°C° 0.4 mm 2 mps 716 mmHg 71%
16:00 +28°C° 0.3 mm 1 mps 715 mmHg 74%
17:00 +28°C° 0.3 mm 1 mps 715 mmHg 78%
18:00 +27°C° 0.3 mm 1 mps 714 mmHg 81%
19:00 +26°C° 0 mm 1 mps 715 mmHg 84%
20:00 +24°C° 0 mm 1 mps 715 mmHg 86%
21:00 +21°C° 0 mm 0 mps 715 mmHg 88%
22:00 +21°C° 0 mm 0 mps 715 mmHg 89%
23:00 +22°C° 0 mm 1 mps 715 mmHg 89%

10 March, Wednesday

Time Temperature Precipitation Wind Pressure Humidity
00:00 +22°C° 0 mm 1 mps 715 mmHg 90%
01:00 +20°C° 0 mm 0 mps 715 mmHg 90%
02:00 +19°C° 0 mm 0 mps 715 mmHg 91%
03:00 +19°C° 0 mm 0 mps 714 mmHg 92%
04:00 +19°C° 0 mm 0 mps 715 mmHg 92%
05:00 +19°C° 0 mm 0 mps 715 mmHg 93%
06:00 +18°C° 0 mm 0 mps 715 mmHg 93%
07:00 +20°C° 0 mm 0 mps 715 mmHg 90%
08:00 +21°C° 0 mm 0 mps 716 mmHg 88%
09:00 +23°C° 0 mm 0 mps 716 mmHg 85%
10:00 +26°C° 0.1 mm 1 mps 716 mmHg 77%
11:00 +28°C° 0.1 mm 1 mps 716 mmHg 70%
12:00 +29°C° 0.1 mm 2 mps 716 mmHg 62%
13:00 +30°C° 0.1 mm 2 mps 716 mmHg 61%
14:00 +30°C° 0.1 mm 3 mps 715 mmHg 60%
15:00 +30°C° 0.1 mm 3 mps 715 mmHg 59%
16:00 +29°C° 0.2 mm 3 mps 714 mmHg 66%
17:00 +28°C° 0.2 mm 3 mps 714 mmHg 72%
18:00 +27°C° 0.2 mm 2 mps 713 mmHg 78%
19:00 +26°C° 0 mm 2 mps 714 mmHg 80%
20:00 +24°C° 0 mm 1 mps 714 mmHg 82%
21:00 +21°C° 0 mm 0 mps 714 mmHg 83%
22:00 +20°C° 0 mm 0 mps 714 mmHg 83%
23:00 +20°C° 0 mm 0 mps 715 mmHg 83%

11 March, Thursday

Time Temperature Precipitation Wind Pressure Humidity
00:00 +20°C° 0 mm 0 mps 715 mmHg 82%
01:00 +19°C° 0 mm 0 mps 715 mmHg 83%
02:00 +19°C° 0 mm 0 mps 714 mmHg 83%
03:00 +19°C° 0 mm 0 mps 714 mmHg 84%
04:00 +18°C° 0 mm 0 mps 714 mmHg 86%
05:00 +18°C° 0 mm 0 mps 715 mmHg 87%
06:00 +17°C° 0 mm 0 mps 715 mmHg 88%
07:00 +19°C° 0 mm 0 mps 715 mmHg 85%
08:00 +23°C° 0 mm 1 mps 716 mmHg 81%
09:00 +25°C° 0 mm 1 mps 717 mmHg 77%
10:00 +26°C° 0 mm 2 mps 717 mmHg 73%
11:00 +28°C° 0 mm 2 mps 717 mmHg 68%
12:00 +30°C° 0 mm 2 mps 717 mmHg 64%
13:00 +30°C° 0.3 mm 3 mps 717 mmHg 64%
14:00 +30°C° 0.3 mm 3 mps 716 mmHg 64%
15:00 +30°C° 0.3 mm 3 mps 716 mmHg 65%
16:00 +29°C° 0.4 mm 2 mps 716 mmHg 69%
17:00 +29°C° 0.4 mm 1 mps 715 mmHg 73%
18:00 +28°C° 0.4 mm 1 mps 715 mmHg 77%
19:00 +26°C° 0 mm 1 mps 715 mmHg 79%
20:00 +25°C° 0 mm 1 mps 716 mmHg 80%
21:00 +22°C° 0 mm 0 mps 716 mmHg 81%
22:00 +21°C° 0 mm 0 mps 716 mmHg 82%
23:00 +23°C° 0 mm 1 mps 717 mmHg 83%

12 March, Friday

Time Temperature Precipitation Wind Pressure Humidity
00:00 +23°C° 0 mm 1 mps 717 mmHg 84%
01:00 +22°C° 0 mm 1 mps 717 mmHg 85%
02:00 +20°C° 0 mm 0 mps 717 mmHg 86%
03:00 +20°C° 0 mm 0 mps 716 mmHg 88%
04:00 +20°C° 0 mm 0 mps 717 mmHg 89%
05:00 +19°C° 0 mm 0 mps 717 mmHg 90%
06:00 +19°C° 0 mm 0 mps 717 mmHg 90%
07:00 +21°C° 0 mm 0 mps 718 mmHg 87%
08:00 +24°C° 0 mm 1 mps 718 mmHg 83%
09:00 +26°C° 0 mm 1 mps 719 mmHg 79%
10:00 +27°C° 0.5 mm 1 mps 719 mmHg 76%
11:00 +29°C° 0.5 mm 1 mps 719 mmHg 73%
12:00 +30°C° 0.5 mm 1 mps 719 mmHg 69%
13:00 +30°C° 0.4 mm 2 mps 718 mmHg 66%
14:00 +31°C° 0.4 mm 2 mps 718 mmHg 62%
15:00 +32°C° 0.4 mm 2 mps 718 mmHg 59%
16:00 +30°C° 1 mm 2 mps 717 mmHg 66%
17:00 +29°C° 1 mm 1 mps 717 mmHg 73%
18:00 +28°C° 1 mm 1 mps 716 mmHg 80%
19:00 +26°C° 0 mm 1 mps 716 mmHg 81%
20:00 +25°C° 0 mm 1 mps 716 mmHg 82%
21:00 +24°C° 0 mm 1 mps 717 mmHg 83%
22:00 +21°C° 0 mm 0 mps 717 mmHg 84%
23:00 +21°C° 0 mm 0 mps 717 mmHg 84%
Show more

We Need Your Consent

Meteoprog and our Service Providers may store and access personal data such as cookies, device identifiers or other similar technologies on your device and process such data to personalise content and ads, as well as provide social media features and to analyse the traffic.

  • Store and/or access information on your device

    Cookies, device identifiers or other information can be stored or accessed on your device for the purposes indicated above.

  • Personalised ads and content, ad and content measurement, audience insights, and products development

    Ads and content can be personalised based on a profile. More data can be added to better personalise ads and content. Ad and content performance can be measured. Insights about the audience who saw the ads and content can be derived. Such data can be used to develop or improve user’s experience, systems and software.

By clicking ‘I Agree’ you will allow the use of indicated cookies, device identifiers, web beacons or other similar technologies. Your settings can be changed in the browser on your device.

For certain purposes, legitimate interests may be relied on, rather than consent. You can read more about this in our Privacy and Cookie Policy.